Location: Bailleul
(50.3375°N, 2.8513°E)
Time: 16:52:44
(UTC+00:00)

Cosmos 1992 Rocket - Pass Details

Date: 16 June 2021
Orbit: 758 x 766 km, 74.0° (Epoch: 31 July)

Event Time Altitude Azimuth Distance (km) Brightness Sun altitude
Exits shadow 22:32:34 22° 167° (SSE) 1,625 5.1 -14.3°
Maximum altitude 22:35:36 46° 106° (ESE) 1,025 4.4 -14.5°
Drops below altitude 10° 22:40:34 10° 34° (NE) 2,310 7.0 -14.7°
Sets 22:43:02 0° 29° (NNE) 3,242 8.0 -14.8°
